Location: Dürabuch
(48.2640°N, 11.2185°E)
Time: 18:55:11
(UTC+00:00)

CZ-2D R/B - Pass Details

Date: 23 May 2025
Orbit: 790 x 841 km, 98.8° (Epoch: 16 June)

Event Time Altitude Azimuth Distance (km) Brightness Sun altitude
Rises 00:23:25 0° 27° (NNE) 3,408 6.9 -19.3°
Reaches altitude 10° 00:26:29 10° 44° (NE) 2,469 5.6 -19.1°
Maximum altitude 00:30:24 20° 90° (E) 1,873 4.2 -18.9°
Drops below altitude 10° 00:34:16 10° 136° (SE) 2,451 4.4 -18.7°
Enters shadow 00:34:49 - 140° (SE) 2,604 4.5 -18.7°
